QPF
0.00 0.00 0.00 0.02 0.03 0.02 0.02 0.02 0.01 0.00 0.01 0.00 0.00 0.00 0.00 0.00 0.00 0.00 0.00 0.00 0.00 0.00 0.00 0.00 0.00 0.00 0.00 0.00 0.00 0.00 0.00 0.00 0.00 0.00 0.00 0.00 0.00 0.01 0.00 0.01 0.01 0.02 0.00 0.00 0.00 0.00 0.00 0.00 0.00
0.00 0.00 0.01 0.05 0.03 0.00 0.01 0.02 0.02 0.00 0.00 0.00 0.00 0.00 0.00 0.00 0.00 0.00 0.00 0.00 0.00 0.00 0.00 0.00 0.00 0.00 0.00 0.00 0.00 0.00 0.00 0.00 0.00 0.00 0.01 0.00 0.02 0.05 0.02 0.02 0.01 0.00 0.00 0.00 0.05 0.11 0.07 0.00 0.01
0.00 0.00 0.06 0.04 0.01 0.02 0.06 0.13 0.08 0.00 0.00 0.00 0.00 0.00 0.00 0.00 0.00 0.00 0.00 0.00 0.00 0.00 0.00 0.00 0.00 0.00 0.00 0.00 0.00 0.00 0.00 0.00 0.00 0.00 0.02 0.01 0.01 0.02 0.01 0.01 0.00 0.00 0.00 0.00 0.05 0.10 0.06 0.00 0.01
0.00 0.03 0.06 0.03 0.01 0.06 0.07 0.05 0.07 0.03 0.01 0.02 0.00 0.00 0.00 0.00 0.00 0.00 0.00 0.00 0.00 0.00 0.00 0.00 0.00 0.00 0.00 0.00 0.00 0.00 0.00 0.00 0.00 0.02 0.01 0.00 0.00 0.00 0.00 0.00 0.00 0.00 0.00 0.02 0.01 0.03 0.03 0.02 0.03
0.07 0.07 0.01 0.00 0.01 0.03 0.05 0.03 0.02 0.02 0.02 0.04 0.01 0.00 0.00 0.00 0.00 0.00 0.00 0.00 0.00 0.00 0.00 0.00 0.00 0.00 0.00 0.00 0.00 0.00 0.00 0.00 0.00 0.01 0.01 0.00 0.00 0.00 0.00 0.00 0.00 0.00 0.00 0.00 0.02 0.02 0.03 0.03 0.04
0.07 0.00 0.00 0.00 0.00 0.00 0.01 0.07 0.06 0.04 0.02 0.02 0.01 0.00 0.00 0.00 0.00 0.00 0.00 0.00 0.00 0.00 0.00 0.00 0.00 0.00 0.00 0.00 0.00 0.00 0.00 0.00 0.00 0.00 0.00 0.01 0.00 0.00 0.00 0.00 0.00 0.00 0.00 0.00 0.00 0.01 0.04 0.03 0.02
0.02 0.00 0.00 0.00 0.01 0.00 0.00 0.06 0.15 0.08 0.05 0.01 0.00 0.00 0.00 0.00 0.00 0.00 0.00 0.00 0.00 0.00 0.00 0.00 0.00 0.00 0.00 0.00 0.00 0.00 0.00 0.00 0.00 0.00 0.00 0.00 0.00 0.00 0.00 0.00 0.00 0.00 0.00 0.00 0.03 0.04 0.05 0.04 0.03
0.05 0.00 0.00 0.00 0.00 0.02 0.00 0.05 0.13 0.06 0.02 0.01 0.00 0.00 0.00 0.00 0.00 0.00 0.00 0.00 0.00 0.00 0.00 0.00 0.00 0.00 0.00 0.00 0.00 0.00 0.00 0.00 0.00 0.00 0.00 0.00 0.00 0.00 0.00 0.00 0.00 0.00 0.00 0.00 0.03 0.05 0.07 0.05 0.03
0.07 0.00 0.00 0.00 0.00 0.07 0.09 0.11 0.11 0.03 0.00 0.00 0.00 0.00 0.00 0.00 0.00 0.00 0.01 0.00 0.00 0.00 0.00 0.00 0.00 0.00 0.00 0.00 0.00 0.00 0.00 0.00 0.00 0.00 0.00 0.00 0.00 0.00 0.00 0.00 0.00 0.00 0.00 0.00 0.00 0.01 0.02 0.02 0.02
0.02 0.01 0.00 0.00 0.00 0.03 0.09 0.11 0.01 0.00 0.00 0.00 0.00 0.00 0.00 0.00 0.00 0.00 0.00 0.00 0.00 0.00 0.00 0.00 0.00 0.00 0.00 0.00 0.00 0.00 0.00 0.00 0.00 0.00 0.00 0.00 0.00 0.00 0.00 0.00 0.00 0.01 0.00 0.00 0.00 0.00 0.00 0.00 0.00
0.04 0.05 0.00 0.00 0.00 0.00 0.00 0.04 0.00 0.00 0.00 0.00 0.00 0.00 0.00 0.00 0.00 0.00 0.00 0.00 0.00 0.00 0.00 0.00 0.00 0.00 0.00 0.00 0.00 0.00 0.00 0.00 0.00 0.00 0.00 0.00 0.00 0.00 0.00 0.00 0.00 0.00 0.00 0.00 0.00 0.00 0.00 0.00 0.00
0.00 0.00 0.00 0.00 0.00 0.00 0.01 0.03 0.01 0.01 0.00 0.00 0.00 0.00 0.00 0.00 0.00 0.00 0.00 0.00 0.00 0.00 0.00 0.00 0.00 0.00 0.00 0.00 0.00 0.00 0.00 0.00 0.00 0.00 0.00 0.00 0.00 0.00 0.00 0.00 0.00 0.00 0.00 0.00 0.00 0.01 0.00 0.00 0.00
0.00 0.00 0.00 0.00 0.00 0.00 0.00 0.00 0.00 0.00 0.00 0.00 0.00 0.00 0.00 0.00 0.00 0.00 0.00 0.00 0.00 0.00 0.00 0.00 0.00 0.00 0.00 0.00 0.00 0.00 0.00 0.00 0.00 0.00 0.00 0.00 0.00 0.00 0.00 0.00 0.00 0.00 0.00 0.00 0.02 0.01 0.00 0.00 0.00
0.00 0.00 0.00 0.00 0.00 0.00 0.00 0.00 0.00 0.00 0.01 0.00 0.00 0.00 0.00 0.00 0.00 0.00 0.00 0.00 0.00 0.00 0.00 0.00 0.00 0.00 0.00 0.00 0.00 0.00 0.00 0.00 0.00 0.00 0.00 0.00 0.00 0.00 0.00 0.00 0.00 0.00 0.00 0.00 0.00 0.01 0.00 0.00 0.00
0.00 0.00 0.00 0.00 0.00 0.00 0.00 0.00 0.00 0.00 0.01 0.00 0.00 0.00 0.00 0.00 0.00 0.00 0.00 0.00 0.00 0.00 0.00 0.00 0.00 0.00 0.00 0.00 0.00 0.00 0.00 0.00 0.00 0.00 0.00 0.00 0.00 0.00 0.00 0.00 0.00 0.00 0.00 0.00 0.00 0.00 0.00 0.00 0.00
0.00 0.00 0.00 0.00 0.00 0.00 0.00 0.00 0.00 0.00 0.00 0.00 0.00 0.00 0.00 0.00 0.00 0.00 0.00 0.00 0.00 0.00 0.00 0.00 0.00 0.00 0.00 0.00 0.00 0.00 0.00 0.00 0.00 0.00 0.00 0.00 0.00 0.00 0.00 0.00 0.00 0.00 0.00 0.00 0.03 0.00 0.00 0.00 0.00
0.00 0.00 0.00 0.00 0.00 0.00 0.00 0.00 0.00 0.00 0.00 0.00 0.00 0.00 0.00 0.00 0.00 0.00 0.00 0.00 0.00 0.00 0.00 0.00 0.00 0.00 0.00 0.00 0.00 0.00 0.00 0.00 0.00 0.00 0.00 0.00 0.00 0.00 0.00 0.00 0.00 0.00 0.00 0.01 0.03 0.00 0.00 0.00 0.00
0.00 0.00 0.00 0.00 0.00 0.00 0.00 0.00 0.00 0.00 0.00 0.00 0.00 0.00 0.00 0.00 0.00 0.00 0.00 0.00 0.00 0.00 0.00 0.00 0.00 0.00 0.00 0.00 0.00 0.00 0.00 0.00 0.00 0.00 0.00 0.00 0.00 0.00 0.00 0.00 0.00 0.00 0.01 0.01 0.01 0.01 0.00 0.00 0.00
0.00 0.00 0.00 0.00 0.00 0.00 0.00 0.00 0.00 0.00 0.00 0.00 0.00 0.00 0.00 0.00 0.00 0.00 0.00 0.00 0.00 0.00 0.00 0.00 0.00 0.00 0.00 0.00 0.00 0.00 0.00 0.00 0.00 0.00 0.00 0.00 0.00 0.00 0.00 0.00 0.00 0.00 0.00 0.00 0.00 0.00 0.00 0.00 0.00
0.00 0.00 0.00 0.00 0.00 0.00 0.00 0.00 0.00 0.00 0.00 0.00 0.00 0.00 0.00 0.00 0.00 0.00 0.00 0.00 0.00 0.00 0.00 0.00 0.00 0.00 0.00 0.00 0.00 0.00 0.00 0.00 0.00 0.00 0.00 0.00 0.00 0.00 0.00 0.00 0.00 0.00 0.00 0.00 0.00 0.00 0.00 0.00 0.00
0.00 0.00 0.00 0.00 0.00 0.00 0.00 0.00 0.00 0.00 0.01 0.01 0.00 0.00 0.00 0.00 0.00 0.00 0.00 0.00 0.00 0.00 0.00 0.00 0.00 0.00 0.00 0.00 0.00 0.00 0.00 0.00 0.00 0.00 0.00 0.00 0.00 0.00 0.00 0.00 0.00 0.01 0.00 0.00 0.00 0.00 0.00 0.00 0.00
0.00 0.00 0.00 0.00 0.00 0.00 0.00 0.00 0.00 0.00 0.00 0.00 0.00 0.00 0.00 0.00 0.00 0.00 0.00 0.00 0.00 0.00 0.00 0.00 0.00 0.00 0.00 0.00 0.00 0.00 0.00 0.00 0.00 0.00 0.00 0.00 0.00 0.00 0.00 0.00 0.00 0.00 0.00 0.00 0.00 0.00 0.00 0.00 0.00
0.00 0.00 0.00 0.00 0.00 0.00 0.00 0.00 0.00 0.00 0.00 0.00 0.00 0.00 0.00 0.00 0.00 0.00 0.00 0.00 0.00 0.00 0.00 0.00 0.00 0.00 0.00 0.00 0.00 0.00 0.00 0.00 0.00 0.00 0.00 0.00 0.00 0.00 0.00 0.00 0.00 0.00 0.00 0.00 0.00 0.00 0.00 0.00 0.00
0.00 0.00 0.00 0.00 0.00 0.00 0.00 0.00 0.00 0.00 0.00 0.00 0.00 0.00 0.00 0.00 0.00 0.00 0.00 0.00 0.00 0.00 0.00 0.00 0.00 0.00 0.00 0.00 0.00 0.00 0.00 0.00 0.00 0.00 0.00 0.00 0.00 0.00 0.00 0.00 0.00 0.00 0.00 0.00 0.00 0.00 0.00 0.00 0.00
0.00 0.00 0.00 0.00 0.00 0.00 0.00 0.00 0.00 0.00 0.00 0.00 0.00 0.00 0.00 0.00 0.00 0.00 0.00 0.00 0.00 0.00 0.00 0.00 0.00 0.00 0.00 0.00 0.00 0.00 0.00 0.00 0.00 0.00 0.00 0.00 0.00 0.00 0.00 0.00 0.00 0.00 0.00 0.00 0.00 0.00 0.00 0.00 0.00
0.00 0.00 0.00 0.00 0.00 0.00 0.00 0.00 0.00 0.00 0.00 0.00 0.00 0.00 0.00 0.00 0.00 0.00 0.00 0.00 0.00 0.00 0.00 0.00 0.00 0.00 0.00 0.00 0.00 0.00 0.00 0.00 0.00 0.00 0.00 0.00 0.00 0.00 0.00 0.00 0.00 0.00 0.00 0.00 0.00 0.00 0.00 0.00 0.00
0.00 0.00 0.00 0.00 0.00 0.00 0.00 0.00 0.00 0.00 0.00 0.00 0.00 0.00 0.00 0.00 0.00 0.00 0.00 0.00 0.00 0.00 0.00 0.00 0.00 0.00 0.00 0.00 0.00 0.00 0.00 0.00 0.00 0.00 0.00 0.00 0.00 0.00 0.00 0.00 0.00 0.00 0.00 0.00 0.00 0.00 0.00 0.00 0.00
0.00 0.00 0.00 0.00 0.00 0.00 0.00 0.00 0.00 0.00 0.00 0.00 0.00 0.00 0.00 0.00 0.00 0.00 0.00 0.00 0.00 0.00 0.00 0.00 0.00 0.00 0.00 0.00 0.00 0.00 0.00 0.00 0.00 0.00 0.00 0.00 0.00 0.00 0.00 0.00 0.00 0.00 0.00 0.00 0.00 0.00 0.00 0.00 0.00
0.00 0.00 0.00 0.00 0.00 0.00 0.00 0.00 0.00 0.00 0.00 0.00 0.00 0.00 0.00 0.00 0.00 0.00 0.00 0.00 0.00 0.00 0.00 0.00 0.00 0.00 0.00 0.00 0.00 0.00 0.00 0.00 0.00 0.00 0.00 0.00 0.00 0.00 0.00 0.00 0.00 0.00 0.00 0.00 0.00 0.00 0.00 0.00 0.00
0.00 0.00 0.00 0.00 0.00 0.00 0.00 0.00 0.00 0.00 0.00 0.00 0.00 0.00 0.00 0.00 0.00 0.00 0.00 0.00 0.00 0.00 0.00 0.00 0.00 0.00 0.00 0.00 0.00 0.00 0.00 0.00 0.00 0.00 0.00 0.00 0.00 0.00 0.00 0.00 0.00 0.00 0.00 0.00 0.00 0.00 0.00 0.00 0.00
MSLP
1010.82 1011.17 1011.54 1011.66 1011.97 1011.11 1010.06 1009.06 1008.56 1008.61 1008.54 1008.08 1008.44 1008.90 1010.13 1011.35 1012.06 1013.54 1013.32 1013.78 1014.06 1014.45 1014.50 1014.72 1014.90 1015.10 1015.34 1015.42 1015.57 1015.64 1015.96 1015.98 1016.07 1016.16 1016.26 1016.45 1016.52 1016.56 1016.64 1016.74 1016.81 1016.96 1017.00 1017.28 1017.38 1017.40 1017.43 1017.46 1017.47
1010.81 1011.30 1011.45 1011.22 1011.00 1010.43 1009.31 1008.21 1007.90 1007.64 1007.68 1007.92 1008.69 1009.34 1010.27 1011.63 1012.28 1013.08 1013.65 1013.98 1014.09 1014.33 1014.67 1014.89 1015.09 1015.32 1015.51 1015.63 1015.78 1015.87 1016.10 1016.20 1016.28 1016.39 1016.54 1016.64 1016.76 1016.77 1016.76 1016.89 1017.03 1017.16 1017.24 1017.35 1017.63 1017.63 1017.67 1017.73 1017.71
1010.86 1010.65 1011.07 1010.84 1010.73 1009.99 1008.98 1008.16 1007.76 1007.14 1007.33 1007.71 1008.83 1009.64 1010.72 1011.82 1012.58 1013.33 1013.48 1013.91 1014.18 1014.54 1014.85 1015.07 1015.32 1015.52 1015.63 1015.81 1016.00 1016.13 1016.32 1016.47 1016.52 1016.52 1016.76 1016.82 1016.88 1016.95 1017.04 1017.17 1017.22 1017.37 1017.49 1017.51 1017.59 1017.88 1017.90 1017.95 1017.93
1010.67 1010.80 1010.79 1010.58 1009.96 1009.46 1008.93 1008.15 1007.26 1007.14 1007.38 1007.88 1008.80 1010.38 1011.43 1011.68 1012.75 1013.22 1013.75 1014.04 1014.44 1014.74 1014.92 1015.16 1015.44 1015.65 1015.76 1016.00 1016.19 1016.42 1016.62 1016.77 1016.74 1016.70 1016.81 1016.98 1017.14 1017.26 1017.33 1017.36 1017.46 1017.54 1017.61 1017.64 1017.74 1017.88 1018.08 1018.24 1018.12
1010.35 1010.16 1010.50 1010.32 1009.65 1009.23 1008.41 1007.82 1007.27 1007.15 1007.64 1008.52 1009.15 1011.12 1012.05 1012.69 1012.78 1013.44 1013.90 1014.26 1014.51 1014.94 1015.07 1015.34 1015.49 1015.72 1015.95 1016.20 1016.45 1016.66 1016.83 1016.93 1017.04 1017.06 1017.12 1017.28 1017.33 1017.36 1017.44 1017.54 1017.70 1017.80 1017.86 1017.94 1018.07 1018.13 1018.23 1018.48 1018.37
1010.33 1010.23 1010.22 1009.95 1009.56 1008.90 1008.18 1007.91 1007.79 1007.51 1008.41 1009.20 1010.08 1011.00 1012.48 1013.03 1013.25 1013.76 1014.09 1014.49 1014.60 1015.05 1015.21 1015.46 1015.71 1015.92 1016.17 1016.37 1016.61 1016.82 1017.04 1017.12 1017.23 1017.31 1017.38 1017.54 1017.60 1017.65 1017.66 1017.72 1017.82 1017.94 1018.06 1018.23 1018.32 1018.42 1018.40 1018.55 1018.58
1010.18 1010.28 1010.04 1009.50 1008.65 1007.92 1007.75 1008.15 1008.09 1008.07 1008.61 1009.20 1009.73 1011.26 1012.64 1013.18 1013.50 1014.00 1014.39 1014.76 1014.90 1015.12 1015.33 1015.67 1015.91 1016.12 1016.30 1016.56 1016.73 1016.97 1017.19 1017.35 1017.48 1017.55 1017.71 1017.79 1017.80 1017.80 1017.87 1017.92 1017.95 1018.00 1018.18 1018.34 1018.46 1018.54 1018.58 1018.73 1018.78
1009.78 1010.08 1009.89 1009.25 1008.56 1007.92 1007.33 1007.57 1007.62 1008.06 1008.58 1009.20 1009.67 1010.86 1012.06 1012.72 1013.35 1014.02 1014.72 1015.07 1015.34 1015.48 1015.56 1015.92 1016.10 1016.29 1016.44 1016.70 1016.81 1017.04 1017.31 1017.47 1017.58 1017.70 1017.88 1017.97 1017.92 1017.90 1018.03 1018.18 1018.13 1018.18 1018.32 1018.48 1018.74 1018.78 1018.92 1018.96 1018.99
1009.73 1009.95 1009.30 1008.32 1007.96 1007.74 1007.42 1007.26 1007.31 1007.58 1008.31 1008.74 1009.33 1010.05 1011.48 1012.45 1013.34 1014.08 1014.79 1015.34 1015.62 1015.86 1016.08 1016.13 1016.31 1016.40 1016.64 1016.84 1016.94 1017.17 1017.42 1017.53 1017.61 1017.74 1017.92 1018.08 1018.14 1018.20 1018.21 1018.36 1018.35 1018.34 1018.44 1018.63 1018.72 1018.87 1018.85 1018.98 1019.14
1009.50 1009.32 1008.00 1006.89 1006.74 1007.25 1006.64 1007.11 1007.36 1007.60 1008.01 1009.28 1009.80 1010.89 1011.90 1012.60 1013.34 1013.99 1014.53 1015.08 1015.51 1015.87 1016.25 1016.42 1016.42 1016.49 1016.86 1016.86 1017.15 1017.44 1017.61 1017.69 1017.84 1017.98 1018.08 1018.38 1018.44 1018.53 1018.54 1018.42 1018.44 1018.63 1018.65 1018.75 1018.78 1018.85 1018.94 1019.14 1019.27
1008.53 1008.08 1006.81 1006.13 1005.55 1006.12 1006.67 1007.14 1007.01 1007.43 1008.26 1008.59 1009.31 1010.62 1011.73 1012.64 1013.29 1013.84 1014.48 1014.91 1015.18 1015.66 1016.14 1016.40 1016.40 1016.61 1016.90 1016.92 1017.34 1017.62 1017.74 1017.96 1018.20 1018.30 1018.42 1018.51 1018.49 1018.53 1018.69 1018.74 1018.80 1018.88 1018.97 1019.07 1019.02 1019.20 1019.29 1019.16 1019.20
1008.04 1006.90 1006.19 1005.24 1005.38 1005.48 1005.86 1006.53 1006.71 1007.10 1007.53 1008.12 1008.90 1009.50 1010.96 1012.26 1012.89 1013.27 1014.02 1014.64 1015.13 1015.63 1015.92 1016.22 1016.31 1016.62 1016.89 1017.08 1017.43 1017.55 1017.90 1018.20 1018.34 1018.42 1018.51 1018.62 1018.78 1018.73 1019.00 1019.00 1019.05 1019.03 1019.20 1019.39 1019.33 1019.33 1019.43 1019.35 1019.23
1007.52 1006.57 1005.80 1005.23 1005.08 1005.20 1005.42 1005.60 1006.17 1007.10 1007.54 1008.76 1009.87 1010.78 1011.11 1012.04 1012.84 1013.27 1013.82 1014.46 1014.88 1015.39 1015.72 1016.02 1016.17 1016.58 1016.77 1017.12 1017.44 1017.62 1017.86 1018.07 1018.26 1018.35 1018.44 1018.65 1018.85 1018.93 1019.07 1019.11 1019.08 1019.07 1019.35 1019.47 1019.45 1019.35 1019.45 1019.20 1019.19
1006.14 1006.33 1005.59 1005.04 1004.42 1004.92 1005.28 1005.58 1005.83 1007.33 1008.06 1009.62 1009.83 1010.57 1011.33 1011.58 1012.13 1012.88 1013.44 1014.00 1014.44 1014.95 1015.33 1015.74 1016.05 1016.12 1016.67 1017.03 1017.35 1017.57 1017.73 1017.93 1018.18 1018.29 1018.31 1018.64 1018.96 1019.01 1018.95 1018.94 1019.06 1019.17 1019.40 1019.55 1019.52 1019.74 1019.52 1019.19 1019.18
1006.16 1006.20 1005.52 1004.93 1004.42 1004.50 1004.85 1005.76 1006.07 1007.21 1008.32 1009.63 1009.94 1010.71 1011.34 1011.51 1011.83 1012.08 1012.60 1013.32 1013.90 1014.42 1014.88 1015.38 1015.74 1015.86 1016.55 1016.92 1017.16 1017.46 1017.52 1017.80 1017.99 1018.03 1018.20 1018.40 1018.66 1018.82 1018.74 1018.76 1019.00 1019.20 1019.38 1019.35 1019.44 1019.67 1020.02 1019.70 1019.56
1005.92 1006.32 1006.00 1004.12 1004.34 1004.19 1004.90 1005.59 1006.44 1007.27 1008.18 1009.60 1010.25 1010.58 1011.14 1011.41 1011.63 1012.06 1012.33 1012.94 1013.48 1014.00 1014.56 1015.01 1015.40 1015.83 1016.26 1016.61 1016.88 1017.14 1017.32 1017.49 1017.65 1017.79 1018.03 1018.28 1018.54 1018.69 1018.68 1018.73 1018.94 1019.13 1019.34 1019.42 1019.79 1019.85 1020.28 1020.32 1020.02
1006.31 1006.06 1005.56 1004.56 1003.96 1004.18 1004.82 1005.46 1006.49 1007.18 1008.26 1009.37 1010.00 1010.12 1010.32 1010.91 1011.29 1011.55 1011.91 1012.39 1012.92 1013.42 1014.02 1014.69 1015.10 1015.54 1015.99 1016.28 1016.55 1016.80 1016.88 1017.24 1017.28 1017.53 1017.87 1018.19 1018.40 1018.60 1018.69 1018.72 1018.91 1019.22 1019.43 1019.63 1019.65 1019.98 1020.01 1020.26 1020.21
1006.29 1005.84 1005.14 1004.50 1003.90 1004.15 1004.61 1005.02 1006.13 1006.99 1007.91 1008.97 1009.58 1009.97 1009.96 1010.19 1010.15 1010.73 1011.26 1011.81 1012.42 1013.01 1013.56 1014.13 1014.74 1015.20 1015.73 1016.20 1016.62 1016.84 1016.91 1017.11 1017.05 1017.30 1017.66 1018.07 1018.38 1018.56 1018.62 1018.78 1018.92 1019.17 1019.28 1019.63 1019.82 1020.03 1020.20 1020.26 1020.36
1005.76 1005.39 1004.93 1003.96 1003.55 1003.92 1004.03 1004.70 1005.85 1006.57 1007.76 1008.46 1009.05 1009.31 1009.39 1009.41 1009.82 1010.34 1010.87 1011.24 1011.86 1012.60 1013.23 1013.63 1014.22 1014.78 1015.54 1016.17 1016.70 1017.10 1017.21 1017.23 1017.31 1017.27 1017.39 1017.90 1018.32 1018.50 1018.64 1018.76 1018.84 1019.04 1019.36 1019.65 1019.79 1020.01 1020.28 1020.58 1020.68
1005.73 1005.40 1004.77 1003.87 1003.42 1003.62 1003.75 1004.18 1004.88 1005.92 1006.06 1006.43 1007.37 1008.06 1008.15 1008.74 1009.28 1009.69 1010.08 1010.61 1011.11 1011.83 1012.54 1013.18 1013.54 1014.20 1014.99 1015.57 1015.98 1016.27 1016.50 1016.91 1017.04 1017.13 1017.23 1017.58 1017.96 1018.31 1018.59 1018.70 1018.92 1018.96 1019.30 1019.62 1019.85 1020.10 1020.48 1020.74 1020.74
1005.20 1005.04 1004.57 1004.00 1003.60 1003.16 1003.59 1004.07 1004.50 1005.30 1006.10 1006.88 1007.04 1007.52 1008.27 1007.78 1008.16 1008.75 1009.32 1009.62 1010.31 1011.02 1011.70 1012.39 1012.88 1013.49 1014.21 1014.89 1015.65 1016.21 1016.41 1016.65 1017.07 1017.26 1017.35 1017.45 1017.66 1017.95 1018.31 1018.49 1018.64 1018.85 1019.02 1019.46 1019.81 1020.16 1020.43 1020.85 1021.05
1004.56 1004.04 1004.22 1004.29 1004.46 1004.02 1003.42 1003.91 1003.89 1004.56 1005.44 1005.79 1006.08 1006.38 1007.12 1007.30 1007.48 1008.06 1008.52 1008.98 1009.21 1009.98 1010.99 1011.77 1012.34 1012.88 1013.67 1014.43 1015.08 1015.53 1015.89 1016.41 1016.65 1016.92 1017.18 1017.32 1017.45 1017.72 1018.05 1018.27 1018.46 1018.66 1018.89 1019.26 1019.59 1019.99 1020.25 1020.58 1021.16
1002.99 1003.67 1004.19 1004.42 1004.70 1004.63 1003.61 1004.16 1003.47 1003.67 1004.51 1004.27 1004.41 1004.90 1005.39 1006.06 1006.39 1006.74 1007.24 1007.79 1008.26 1009.23 1010.10 1010.94 1011.84 1012.45 1013.08 1013.84 1014.35 1014.98 1015.53 1015.82 1016.39 1016.76 1017.10 1017.38 1017.48 1017.54 1017.67 1018.04 1018.36 1018.63 1018.88 1019.09 1019.45 1019.81 1020.21 1020.46 1020.93
1003.03 1003.62 1004.32 1004.67 1005.21 1004.51 1003.32 1003.74 1002.86 1002.68 1002.09 1002.23 1002.54 1003.30 1003.71 1004.66 1005.04 1005.32 1006.10 1007.14 1007.88 1008.42 1009.45 1010.29 1011.10 1011.82 1012.65 1013.17 1013.82 1014.40 1015.00 1015.50 1016.16 1016.62 1017.02 1017.34 1017.45 1017.60 1017.53 1017.78 1018.25 1018.46 1018.65 1019.02 1019.23 1019.58 1020.06 1020.42 1020.64
1002.84 1003.64 1005.08 1005.50 1005.16 1003.63 1003.05 1002.95 1001.57 1000.94 1000.41 1000.48 1000.60 1001.42 1002.04 1003.26 1003.81 1004.48 1005.45 1006.28 1006.82 1007.63 1008.46 1009.49 1010.45 1011.10 1011.86 1012.66 1013.18 1013.79 1014.30 1014.86 1015.31 1016.00 1016.60 1017.13 1017.31 1017.41 1017.53 1017.64 1018.11 1018.44 1018.42 1018.64 1019.00 1019.46 1019.89 1020.18 1020.50
1002.06 1002.98 1003.77 1004.00 1004.20 1003.65 1002.77 1001.32 1000.13 999.62 998.75 999.12 999.50 999.70 1001.00 1002.16 1003.02 1003.19 1003.92 1004.67 1005.49 1006.40 1007.35 1008.32 1009.49 1010.44 1011.13 1011.94 1012.43 1013.10 1013.71 1014.28 1014.76 1015.22 1015.90 1016.42 1016.70 1016.83 1016.76 1017.16 1017.52 1017.82 1018.06 1018.32 1018.78 1019.31 1019.64 1019.93 1020.27
1001.08 1001.46 1002.54 1003.53 1004.12 1003.38 1001.76 1000.64 999.66 999.09 998.76 998.56 998.91 999.87 1000.68 1001.06 1001.84 1002.10 1002.76 1003.51 1004.28 1005.25 1006.13 1007.05 1008.31 1009.35 1010.26 1010.91 1011.74 1012.44 1013.04 1013.62 1014.16 1014.62 1015.15 1015.70 1016.09 1016.32 1016.48 1016.64 1017.23 1017.40 1017.60 1017.95 1018.34 1018.95 1019.29 1019.54 1019.82
999.96 1001.13 1002.34 1002.69 1003.24 1002.74 1001.38 1000.02 998.53 998.93 998.72 998.36 998.16 998.82 999.46 999.93 1000.82 1001.14 1001.78 1002.40 1003.05 1003.84 1004.83 1006.13 1007.13 1008.02 1009.01 1010.00 1010.82 1011.56 1012.10 1012.76 1013.39 1014.00 1014.56 1015.05 1015.46 1015.86 1016.16 1016.48 1016.86 1017.19 1017.26 1017.48 1018.04 1018.48 1018.78 1019.20 1019.46
1000.83 1000.32 1000.65 1001.68 1002.20 1001.75 1001.05 998.78 997.30 997.66 997.84 997.92 997.46 997.54 998.01 998.52 999.24 999.61 1000.39 1001.11 1002.08 1003.37 1004.41 1005.17 1006.49 1007.42 1008.42 1009.21 1009.92 1010.73 1011.49 1012.20 1012.72 1013.24 1013.86 1014.38 1014.89 1015.32 1015.76 1016.09 1016.45 1016.76 1016.90 1017.17 1017.65 1018.01 1018.37 1018.82 1019.11
1002.62 1000.80 1000.87 1000.76 1001.40 1001.25 1000.08 998.02 996.74 996.49 996.87 996.78 996.66 996.59 996.70 996.96 997.50 998.18 999.43 1000.21 1001.28 1002.42 1003.74 1004.60 1005.54 1006.64 1007.23 1007.93 1008.88 1009.88 1010.68 1011.34 1012.06 1012.57 1013.07 1013.64 1014.18 1014.74 1015.15 1015.56 1015.92 1016.13 1016.36 1016.73 1017.14 1017.50 1017.81 1018.20 1018.60
Thickness
5779 5776 5774 5766 5747 5750 5749 5765 5774 5768 5772 5790 5793 5788 5774 5766 5761 5744 5770 5770 5768 5765 5763 5760 5758 5756 5754 5754 5753 5753 5751 5751 5751 5750 5750 5749 5749 5750 5750 5750 5749 5748 5747 5744 5742 5742 5743 5742 5741
5779 5775 5770 5762 5751 5740 5753 5780 5772 5781 5791 5795 5790 5785 5775 5759 5768 5764 5765 5770 5769 5766 5762 5759 5757 5755 5754 5753 5753 5753 5751 5751 5751 5751 5750 5750 5750 5750 5751 5750 5748 5747 5747 5745 5741 5741 5742 5741 5741
5779 5781 5761 5756 5746 5743 5751 5776 5777 5795 5802 5798 5785 5787 5776 5763 5768 5767 5773 5772 5769 5766 5762 5759 5757 5756 5755 5755 5753 5753 5752 5751 5751 5752 5751 5751 5752 5752 5750 5749 5749 5748 5746 5745 5743 5740 5739 5739 5739
5775 5771 5766 5748 5746 5763 5769 5776 5791 5794 5800 5801 5791 5769 5776 5781 5770 5773 5774 5772 5769 5767 5763 5760 5758 5757 5756 5755 5754 5753 5752 5751 5752 5754 5753 5752 5752 5751 5750 5750 5749 5748 5746 5745 5743 5740 5738 5735 5736
5778 5771 5751 5748 5758 5769 5777 5791 5800 5796 5795 5790 5789 5763 5762 5771 5777 5775 5773 5771 5768 5765 5763 5760 5760 5759 5757 5756 5754 5753 5752 5752 5752 5753 5754 5753 5754 5753 5752 5752 5750 5749 5747 5745 5743 5740 5737 5734 5735
5763 5768 5750 5746 5758 5775 5787 5791 5790 5797 5787 5781 5774 5770 5762 5772 5772 5772 5773 5769 5767 5764 5762 5761 5760 5759 5757 5756 5755 5753 5753 5753 5753 5753 5753 5753 5753 5754 5754 5754 5754 5752 5749 5746 5744 5741 5738 5735 5737
5762 5756 5752 5761 5770 5780 5789 5785 5782 5787 5781 5779 5785 5763 5763 5767 5772 5772 5770 5768 5766 5763 5762 5760 5759 5759 5758 5756 5756 5755 5754 5754 5754 5754 5753 5752 5754 5755 5755 5755 5755 5754 5750 5748 5746 5743 5741 5738 5740
5771 5764 5755 5761 5763 5769 5795 5791 5795 5789 5780 5791 5790 5765 5761 5770 5775 5772 5767 5765 5763 5763 5761 5760 5760 5760 5759 5757 5758 5757 5756 5755 5755 5754 5754 5754 5756 5757 5757 5756 5756 5755 5752 5750 5747 5744 5742 5742 5742
5776 5757 5750 5764 5768 5775 5791 5791 5801 5804 5789 5793 5792 5786 5778 5777 5774 5769 5764 5761 5760 5760 5759 5760 5760 5760 5759 5759 5759 5758 5757 5757 5758 5757 5757 5757 5758 5757 5758 5758 5757 5757 5754 5751 5749 5746 5746 5745 5744
5764 5752 5768 5791 5792 5779 5782 5792 5796 5792 5790 5778 5780 5781 5779 5776 5770 5766 5764 5760 5758 5758 5758 5760 5761 5760 5759 5760 5759 5759 5758 5759 5761 5761 5760 5759 5760 5759 5759 5759 5759 5758 5757 5754 5752 5751 5749 5748 5748
5771 5761 5787 5800 5809 5802 5791 5787 5800 5788 5776 5786 5779 5776 5778 5773 5770 5768 5765 5763 5761 5761 5761 5760 5762 5761 5760 5762 5760 5761 5761 5760 5760 5761 5762 5761 5762 5762 5761 5761 5761 5760 5757 5756 5755 5752 5751 5752 5751
5764 5785 5795 5808 5810 5804 5793 5796 5794 5793 5792 5797 5793 5792 5783 5773 5771 5773 5769 5766 5763 5762 5763 5763 5763 5763 5763 5763 5763 5765 5762 5761 5762 5763 5763 5763 5762 5763 5761 5762 5761 5761 5759 5756 5757 5754 5752 5752 5752
5770 5782 5795 5804 5808 5805 5805 5802 5798 5792 5798 5793 5788 5782 5780 5775 5772 5775 5773 5770 5768 5764 5765 5764 5766 5765 5765 5765 5765 5766 5765 5764 5764 5764 5765 5765 5765 5763 5762 5762 5762 5762 5759 5756 5756 5756 5753 5755 5755
5786 5784 5791 5801 5809 5804 5797 5799 5802 5794 5796 5781 5785 5781 5778 5778 5777 5775 5774 5770 5770 5769 5768 5768 5768 5769 5768 5767 5767 5768 5768 5768 5767 5766 5768 5766 5765 5764 5765 5764 5763 5762 5759 5757 5756 5754 5754 5757 5756
5781 5770 5786 5795 5801 5799 5808 5785 5790 5796 5791 5779 5782 5778 5776 5778 5780 5779 5780 5775 5775 5773 5773 5771 5771 5773 5771 5770 5769 5768 5769 5770 5771 5770 5770 5770 5769 5768 5768 5767 5765 5763 5761 5760 5759 5755 5752 5754 5755
5767 5763 5751 5793 5800 5807 5798 5771 5790 5797 5789 5776 5777 5778 5775 5776 5777 5778 5781 5779 5779 5777 5774 5775 5776 5775 5775 5774 5773 5771 5772 5774 5773 5774 5774 5774 5771 5770 5770 5769 5767 5765 5763 5761 5757 5756 5754 5752 5754
5750 5741 5756 5774 5803 5804 5793 5780 5790 5796 5787 5777 5777 5781 5782 5779 5779 5781 5782 5781 5781 5780 5779 5775 5778 5778 5778 5777 5777 5776 5776 5777 5778 5776 5776 5775 5773 5772 5772 5771 5770 5765 5764 5760 5760 5757 5757 5754 5754
5731 5746 5761 5764 5790 5793 5785 5784 5789 5793 5787 5780 5779 5780 5784 5783 5785 5786 5785 5786 5783 5782 5782 5780 5779 5781 5780 5779 5777 5778 5778 5778 5780 5780 5779 5776 5774 5774 5773 5773 5772 5770 5767 5763 5760 5760 5758 5758 5756
5757 5757 5760 5780 5794 5789 5788 5788 5782 5791 5784 5780 5781 5782 5784 5787 5791 5788 5786 5788 5786 5784 5782 5784 5783 5783 5782 5778 5776 5775 5775 5778 5780 5782 5782 5778 5776 5775 5774 5774 5775 5772 5768 5764 5764 5762 5759 5757 5756
5742 5741 5751 5775 5789 5786 5785 5785 5792 5790 5794 5796 5791 5789 5792 5791 5789 5790 5790 5789 5789 5787 5786 5786 5786 5787 5786 5784 5784 5783 5783 5783 5784 5784 5785 5784 5780 5777 5777 5776 5775 5774 5770 5767 5765 5764 5760 5757 5757
5733 5733 5748 5761 5776 5789 5781 5772 5783 5788 5788 5788 5792 5792 5789 5796 5794 5793 5793 5794 5794 5793 5792 5791 5791 5791 5792 5790 5786 5785 5787 5787 5784 5784 5785 5785 5783 5782 5780 5779 5777 5775 5774 5769 5767 5765 5762 5755 5756
5714 5758 5761 5759 5749 5739 5779 5729 5772 5782 5780 5789 5792 5795 5793 5797 5801 5799 5797 5797 5801 5800 5798 5795 5795 5795 5794 5793 5790 5787 5786 5782 5786 5787 5788 5787 5786 5784 5782 5780 5780 5778 5776 5773 5770 5767 5765 5762 5754
5748 5757 5750 5755 5743 5744 5757 5730 5755 5784 5770 5791 5801 5804 5805 5805 5807 5807 5806 5806 5807 5807 5805 5801 5798 5797 5797 5797 5795 5791 5789 5791 5788 5789 5788 5787 5786 5786 5785 5783 5780 5778 5776 5774 5772 5768 5765 5764 5759
5756 5745 5739 5741 5726 5710 5748 5732 5739 5765 5792 5804 5815 5814 5817 5814 5817 5820 5818 5812 5811 5813 5809 5806 5802 5801 5799 5800 5797 5794 5793 5791 5788 5787 5786 5785 5787 5789 5788 5785 5782 5780 5779 5776 5774 5772 5768 5764 5762
5731 5711 5678 5679 5682 5703 5747 5731 5763 5789 5816 5817 5824 5825 5829 5823 5824 5823 5818 5814 5816 5817 5814 5810 5806 5803 5803 5801 5800 5798 5796 5795 5794 5791 5788 5786 5787 5788 5789 5787 5785 5783 5782 5779 5777 5773 5770 5767 5763
5715 5708 5674 5662 5672 5712 5743 5714 5756 5808 5832 5835 5834 5839 5833 5825 5825 5832 5828 5825 5824 5825 5821 5817 5809 5805 5805 5803 5803 5802 5800 5798 5798 5797 5793 5792 5792 5793 5794 5792 5790 5788 5785 5782 5779 5775 5772 5770 5767
5716 5708 5729 5700 5701 5704 5738 5750 5788 5804 5812 5826 5828 5827 5822 5826 5828 5834 5836 5834 5832 5831 5829 5825 5817 5813 5809 5808 5806 5804 5804 5803 5801 5800 5799 5797 5797 5798 5797 5795 5792 5789 5788 5786 5782 5778 5775 5774 5771
5730 5733 5700 5692 5677 5677 5710 5735 5769 5778 5793 5817 5826 5826 5829 5832 5831 5836 5838 5841 5841 5841 5838 5831 5826 5822 5816 5812 5811 5809 5809 5808 5806 5804 5802 5801 5801 5800 5799 5796 5794 5790 5789 5788 5785 5781 5780 5776 5774
5708 5718 5723 5720 5702 5703 5690 5730 5790 5795 5805 5814 5831 5841 5841 5843 5843 5844 5846 5849 5847 5842 5838 5835 5828 5824 5818 5816 5815 5813 5812 5811 5811 5809 5807 5805 5803 5802 5798 5796 5794 5793 5791 5790 5786 5784 5782 5777 5775
5679 5713 5708 5710 5695 5694 5723 5742 5803 5812 5812 5825 5834 5844 5850 5856 5857 5859 5851 5852 5849 5844 5837 5834 5832 5827 5827 5826 5822 5818 5816 5816 5813 5812 5811 5809 5805 5803 5800 5798 5796 5796 5795 5792 5788 5786 5784 5780 5776